EW0352 Weather Reports


Display with metric or nautical units.
time (UTC)temp
F
wind
direction
speed
MPH
gust
MPH
rain 1hr
in
rain 24hr
in
rain mn
in
humidity
%
barometer
mb
20191022114148 42 288 7.0 18.0 0.04 1.08 0.21 92 994.4
20191022113248 42 299 6.0 18.0 0.04 1.08 0.20 92 994.2
20191022112348 42 296 8.0 19.0 0.04 1.11 0.20 92 994.1
20191022111448 42 299 7.0 23.0 0.04 1.12 0.19 93 994.0
20191022110549 42 300 6.0 15.0 0.04 1.13 0.19 93 993.8
20191022105648 42 294 8.0 16.0 0.04 1.13 0.18 93 993.7
20191022104748 42 296 7.0 17.0 0.04 1.13 0.18 93 993.6
20191022103848 43 304 7.0 16.0 0.03 1.12 0.17 93 993.4
20191022102948 43 298 6.0 16.0 0.04 1.12 0.16 93 993.2
20191022102049 43 301 7.0 18.0 0.03 1.12 0.15 93 993.0
20191022101148 43 301 7.0 18.0 0.04 1.12 0.15 93 992.8
20191022100248 43 311 6.0 15.0 0.03 1.11 0.14 93 992.7
20191022095348 43 306 7.0 15.0 0.03 1.11 0.14 93 992.6
20191022094448 43 306 7.0 16.0 0.04 1.11 0.14 93 992.5
20191022093548 43 304 5.0 15.0 0.04 1.10 0.13 93 992.3
20191022092648 43 307 7.0 18.0 0.04 1.09 0.12 93 992.2
20191022091748 43 302 6.0 17.0 0.05 1.09 0.12 94 992.0
20191022090848 43 303 6.0 17.0 0.06 1.08 0.11 93 991.9
20191022085948 43 309 5.0 20.0 0.07 1.08 0.11 93 991.8
20191022085048 42 313 3.0 12.0 0.06 1.07 0.09 93 991.6
20191022084149 42 312 5.0 13.0 0.07 1.07 0.09 93 991.6
20191022083249 42 323 8.0 21.0 0.06 1.05 0.08 93 991.4
20191022082349 42 320 8.0 23.0 0.05 1.04 0.07 93 991.5
20191022081448 42 318 6.0 17.0 0.03 1.02 0.05 93 991.2
20191022080549 42 318 7.0 22.0 0.01 1.00 0.04 93 991.0
20191022075649 42 317 8.0 17.0 0.01 1.00 0.03 93 991.0
20191022074749 42 319 7.0 17.0 0.00 0.99 0.02 93 990.8
20191022073849 42 312 7.0 26.0 0.00 0.99 0.02 93 990.7
20191022072949 42 321 7.0 18.0 0.00 0.99 0.02 93 990.5
20191022072049 42 316 6.0 18.0 0.00 0.99 0.02 93 990.4
20191022071149 43 314 8.0 19.0 0.00 0.99 0.02 93 990.2
20191022070249 43 316 6.0 14.0 0.00 0.99 0.02 93 990.1
20191022065349 43 320 8.0 18.0 0.01 0.99 0.02 93 989.9
20191022064449 43 329 7.0 16.0 0.01 0.99 0.02 93 989.7
20191022063549 44 322 6.0 18.0 0.01 0.99 0.02 93 989.4
20191022062649 44 325 6.0 17.0 0.02 0.99 0.02 93 989.2
20191022061749 44 326 6.0 14.0 0.02 0.99 0.02 92 989.0
20191022060849 44 321 6.0 17.0 0.02 0.99 0.02 93 988.9
20191022055949 45 317 5.0 16.0 0.02 0.99 0.02 92 988.8
20191022055049 45 327 6.0 12.0 0.01 0.98 0.01 92 988.7
20191022054149 46 341 7.0 17.0 0.01 0.98 0.01 92 988.5
20191022053249 46 312 3.0 11.0 0.01 0.98 0.01 93 988.3
20191022052349 46 1 1.0 3.0 0.00 0.97 0.00 93 988.2
20191022051449 46 0 0.0 0.0 0.00 0.97 0.00 93 988.0
20191022050549 46 0 0.0 2.0 0.00 0.97 0.00 93 987.9
20191022045649 46 0 0.0 2.0 0.00 0.97 0.97 92 987.7
20191022044749 46 0 0.0 0.0 0.00 0.97 0.97 92 987.7
20191022043849 46 0 0.0 0.0 0.00 0.97 0.97 92 987.6
20191022042949 46 0 0.0 0.0 0.00 0.97 0.97 92 987.5
20191022042049 46 0 0.0 0.0 0.00 0.97 0.97 92 987.4
20191022041149 46 93 1.0 3.0 0.00 0.97 0.97 92 987.4
20191022040249 46 0 0.0 2.0 0.00 0.97 0.97 92 987.2
20191022035349 46 0 0.0 2.0 0.00 0.97 0.97 92 987.0
20191022034449 46 85 1.0 3.0 0.00 0.97 0.97 92 986.9
20191022033549 46 0 0.0 3.0 0.00 0.97 0.97 92 986.8
20191022032650 46 122 1.0 3.0 0.00 0.97 0.97 92 986.7
20191022031749 46 122 1.0 3.0 0.00 0.97 0.97 92 986.6
20191022030849 47 122 1.0 3.0 0.00 0.97 0.97 92 986.5
20191022025949 47 129 3.0 5.0 0.00 0.97 0.97 92 986.4
20191022025049 47 130 3.0 7.0 0.00 0.97 0.97 91 986.3
20191022024149 47 141 3.0 8.0 0.00 0.97 0.97 91 986.3
20191022023249 47 131 3.0 8.0 0.00 0.97 0.97 91 986.2
20191022022349 47 130 3.0 7.0 0.00 0.97 0.97 91 986.2
20191022021449 47 134 3.0 7.0 0.00 0.97 0.97 91 986.2
20191022020549 47 134 3.0 5.0 0.00 0.97 0.97 91 986.2
20191022015650 48 133 3.0 6.0 0.00 0.97 0.97 92 986.2
20191022014750 48 143 2.0 4.0 0.00 0.97 0.97 92 986.1
20191022013850 47 177 1.0 3.0 0.00 0.97 0.97 92 986.1
20191022012949 47 181 2.0 5.0 0.00 0.97 0.97 92 986.1
20191022012049 47 179 2.0 6.0 0.00 0.97 0.97 92 986.0
20191022011150 47 169 2.0 7.0 0.00 0.97 0.97 92 986.0
20191022010249 47 146 2.0 6.0 0.00 0.97 0.97 92 986.0
20191022005349 47 163 2.0 6.0 0.00 0.97 0.97 91 986.0
20191022004450 48 148 2.0 7.0 0.00 0.97 0.97 91 986.0
20191022003549 48 178 3.0 8.0 0.00 0.97 0.97 91 985.9
20191022002650 48 183 3.0 11.0 0.00 0.97 0.97 91 985.8
20191022001750 48 179 3.0 8.0 0.00 0.97 0.97 92 985.8
20191022000850 48 170 3.0 10.0 0.00 0.97 0.97 92 985.8
20191021235950 48 174 2.0 7.0 0.00 0.97 0.97 91 985.7
20191021235049 48 152 3.0 9.0 0.00 0.97 0.97 91 985.6
20191021234149 48 181 2.0 9.0 0.00 0.97 0.97 91 985.5
20191021233250 48 183 3.0 10.0 0.00 0.97 0.97 91 985.6
20191021232350 49 181 2.0 8.0 0.00 0.97 0.97 91 985.7
20191021231450 49 187 4.0 13.0 0.00 0.97 0.97 91 985.8
20191021230550 49 190 3.0 9.0 0.00 0.97 0.97 91 985.7
20191021225650 49 188 4.0 10.0 0.00 0.97 0.97 91 985.7
20191021224750 49 166 3.0 9.0 0.00 0.97 0.97 91 985.6
20191021223850 50 158 4.0 12.0 0.00 0.97 0.97 91 985.4
20191021222950 50 162 4.0 11.0 0.00 0.97 0.97 91 985.4
20191021222050 50 178 5.0 12.0 0.02 0.97 0.97 91 985.5
20191021221150 50 181 4.0 12.0 0.02 0.97 0.97 92 985.4
20191021220250 50 193 3.0 9.0 0.02 0.97 0.97 92 985.3
20191021215350 51 189 5.0 13.0 0.02 0.97 0.97 92 985.4
20191021214450 51 186 6.0 14.0 0.02 0.97 0.97 92 985.5
20191021213550 52 169 5.0 19.0 0.02 0.97 0.97 93 985.3
20191021212650 52 126 3.0 6.0 0.01 0.96 0.96 93 985.1
20191021211750 52 143 1.0 4.0 0.00 0.95 0.95 94 985.2
20191021210850 52 0 0.0 2.0 0.00 0.95 0.95 94 985.2
20191021205950 52 142 1.0 3.0 0.00 0.95 0.95 93 985.3
20191021205050 52 146 1.0 3.0 0.00 0.95 0.95 93 985.2
20191021204150 52 0 0.0 3.0 0.00 0.95 0.95 93 985.3
20191021203250 52 170 1.0 6.0 0.00 0.95 0.95 93 985.3
20191021202350 53 0 0.0 2.0 0.00 0.95 0.95 93 985.4
20191021201450 53 177 2.0 6.0 0.00 0.95 0.95 94 985.3
20191021200550 53 185 2.0 6.0 0.00 0.95 0.95 95 985.3
20191021195650 52 192 3.0 7.0 0.00 0.95 0.95 95 985.6
20191021194750 52 194 1.0 4.0 0.00 0.95 0.95 95 985.9
20191021193850 51 191 2.0 7.0 0.00 0.95 0.95 95 985.6
20191021192950 51 183 3.0 9.0 0.00 0.95 0.95 95 985.9
20191021192050 50 184 2.0 6.0 0.00 0.95 0.95 95 985.9
20191021191150 50 145 4.0 12.0 0.00 0.95 0.95 95 985.9
20191021190250 50 142 6.0 14.0 0.02 0.95 0.95 95 985.7
20191021185350 50 142 5.0 13.0 0.04 0.95 0.95 95 985.4
20191021184450 50 11 8.0 16.0 0.06 0.95 0.95 95 983.1
20191021183550 50 5 7.0 17.0 0.07 0.95 0.95 95 983.1
20191021182650 50 14 5.0 13.0 0.08 0.95 0.95 95 984.3
20191021181750 49 34 2.0 8.0 0.09 0.95 0.95 94 985.9
20191021180850 49 0 0.0 2.0 0.08 0.94 0.94 95 987.3
20191021175950 49 0 0.0 2.0 0.07 0.92 0.92 95 987.7
20191021175050 49 0 0.0 1.0 0.05 0.90 0.90 95 988.0
20191021174150 49 0 0.0 2.0 0.06 0.89 0.89 94 988.1
20191021173250 48 0 0.0 3.0 0.05 0.88 0.88 94 988.2
20191021172350 48 35 1.0 5.0 0.05 0.87 0.87 94 988.4
20191021171450 48 34 1.0 5.0 0.06 0.85 0.85 94 988.3
20191021170550 48 48 1.0 4.0 0.07 0.84 0.84 94 988.6
20191021165650 48 31 2.0 5.0 0.09 0.84 0.84 94 988.9
20191021164750 48 45 1.0 5.0 0.11 0.83 0.84 94 989.3
20191021163850 48 32 1.0 2.0 0.11 0.82 0.82 94 989.7
20191021162950 48 53 1.0 4.0 0.13 0.81 0.81 94 989.8
20191021162050 48 50 1.0 4.0 0.16 0.81 0.81 94 990.1
20191021161150 48 40 1.0 3.0 0.15 0.78 0.79 94 990.4
20191021160250 47 26 1.0 3.0 0.14 0.76 0.76 94 990.7
20191021155350 47 0 0.0 3.0 0.14 0.75 0.75 94 991.0
20191021154450 47 64 2.0 4.0 0.14 0.73 0.73 94 991.4
20191021153550 47 70 1.0 5.0 0.13 0.71 0.71 94 991.8
20191021152651 47 83 2.0 6.0 0.11 0.68 0.69 94 992.1
20191021151751 47 66 2.0 5.0 0.09 0.65 0.65 94 992.3
20191021150851 47 63 3.0 7.0 0.09 0.63 0.63 94 992.4
20191021145950 47 65 2.0 5.0 0.09 0.62 0.62 94 992.6
20191021145051 47 85 3.0 7.0 0.08 0.60 0.60 94 993.0
20191021144150 47 78 3.0 7.0 0.08 0.58 0.58 93 993.1
20191021143250 47 75 3.0 9.0 0.11 0.57 0.57 93 993.3
20191021142350 47 82 3.0 8.0 0.14 0.57 0.57 93 993.5
20191021141451 47 76 4.0 10.0 0.15 0.55 0.56 93 993.6
20191021140551 47 82 4.0 10.0 0.16 0.54 0.54 93 994.0
20191021135651 47 79 4.0 11.0 0.18 0.53 0.53 93 994.3
20191021134751 47 83 5.0 12.0 0.19 0.51 0.51 93 994.4
20191021133851 47 89 5.0 14.0 0.18 0.49 0.49 93 994.6
20191021132951 47 85 5.0 14.0 0.16 0.45 0.45 93 994.5
20191021132051 47 92 5.0 13.0 0.17 0.42 0.42 92 994.6
20191021131151 47 82 5.0 15.0 0.18 0.39 0.39 92 994.7
20191021130251 47 81 5.0 10.0 0.20 0.37 0.37 92 994.8
20191021125351 47 75 5.0 10.0 0.20 0.34 0.34 91 995.2
20191021124451 47 75 5.0 12.0 0.21 0.32 0.32 92 995.7
20191021123551 47 86 3.0 7.0 0.21 0.31 0.31 91 996.3
20191021122651 47 63 1.0 5.0 0.21 0.28 0.28 91 996.7
20191021121751 48 72 3.0 8.0 0.18 0.23 0.24 91 996.8
20191021120851 48 75 2.0 5.0 0.16 0.19 0.20 90 997.4
20191021115951 48 65 3.0 6.0 0.12 0.15 0.16 90 997.5
20191021115051 48 71 2.0 5.0 0.08 0.11 0.12 89 997.8